User: anonymous   Login
Location: *
(17.3280°S, 114.7300°W)
Time: 12:30:39
(UTC+00:00)
Language:

Palapa 6 Rocket - Orbit

View from above orbital plane
View from above orbital plane
View from above satellite
View from above satellite

Ground track
Ground track

The orbit data is extracted from the following two-line orbital elements,

1 20571U 90034B   20293.50857981 +.00000449 +00000-0 +16872-4 0  9995
2 20571 022.7482 090.7134 0506558 314.3290 041.6703 14.12456275564729
Epoch (UTC): 19 October 2020 12:12:21
Eccentricity: 0.0506558
inclination: 22.7482°
perigee height: 485 km
apogee height: 1217 km
right ascension of ascending node: 90.7134°
argument of perigee: 314.3290°
revolutions per day: 14.12456275
mean anomaly at epoch: 41.6703°
orbit number at epoch: 56472

The dashed part of the orbit path shows where the satellite is in the earth's shadow,  

DLR